STARLINK-32134 (60300 NORAD) Tracking and Keplerian Element Data

This shows tracking and keplerian element data for the satellite.

Feedback or suggestion? Click here.




ElementValue
Catalog60300
NameSTARLINK-32134
Epoch Orbit1297
Epoch Day286.40034108
Epoch Year2024
RAAN276.5998
Inclination53.1585
Eccentricity0.0001448
Argument of Perigee97.4364
Mean Anonmoly262.6801
Mean Motion15.30198006
Decay Rate0.00058241
L11 60300U 24132Y 24286.40034108 .00058241 00000+0 19633-2 0 9996
L22 60300 53.1585 276.5998 0001448 97.4364 262.6801 15.30198006 12971



Live tracking and technical data element details for STARLINK-32134 (NORAD 60300). STARLINK-32134 can be tracked NOW for your location showing map with azimuth and elevation plus other details from your city location.







IsCatalogInMostPopularTable: catalog: 60300, numindb: 10
Update: records affected: 1



GetName: 60300 STARLINK-32134

Hit Count: updated at: Thu, 23 Jan 2025 14:00:58 GMT